User: anonymous   Login
Location: Unspecified
(0.0000°N, 0.0000°E)
Time: 15:27:34
(UTC+00:00)
Language:

TOPSAT - Orbit

View from above orbital plane
View from above orbital plane
View from above satellite
View from above satellite

Ground track
Ground track

The orbit data is extracted from the following two-line orbital elements,

1 28891U 05043B   17229.41300206  .00000059  00000-0  21026-4 0  9996
2 28891  97.8933  22.0437 0015989 327.4675  32.5542 14.61280344629295
Epoch (UTC): 17 August 2017 09:54:43
Eccentricity: 0.0015989
inclination: 97.8933°
perigee height: 678 km
apogee height: 700 km
right ascension of ascending node: 22.0437°
argument of perigee: 327.4675°
revolutions per day: 14.61280344
mean anomaly at epoch: 32.5542°
orbit number at epoch: 62929

The dashed part of the orbit path shows where the satellite is in the earth's shadow,  

DLR